Theta_e
327 328 328 328 332 327 331 332 328 331 330 328 328 331 334 335 343 342 338 340 339 337 339 338 337 336 333 329 332 330 335 336 335 334 334 331 330 329 328 326 326 330 330 330 331 331 328 325 323
327 329 328 325 330 332 332 329 330 330 327 326 327 328 330 339 337 336 340 340 339 337 338 338 337 335 333 329 330 332 330 332 333 333 332 330 329 327 326 327 326 329 330 330 330 330 331 327 324
327 328 325 328 329 333 332 329 328 328 327 327 327 328 332 335 336 337 339 341 339 337 337 337 336 335 334 329 329 331 336 334 333 332 331 330 328 327 325 326 327 328 326 328 328 327 332 328 325
327 325 323 329 332 329 329 326 328 329 328 327 330 336 332 335 337 338 341 340 338 337 337 337 336 336 334 328 328 330 331 330 327 332 329 330 328 327 325 325 324 325 326 326 327 323 329 329 326
327 322 328 330 332 329 327 326 326 330 328 329 331 338 336 338 338 339 341 339 338 338 337 336 337 336 330 326 326 328 330 329 329 331 330 331 329 326 325 323 323 323 324 324 325 322 322 323 327
327 323 330 333 333 330 328 325 326 327 328 331 333 335 336 338 338 338 340 338 337 337 337 337 337 335 329 326 324 324 327 328 328 332 328 331 330 327 325 325 325 323 323 322 320 318 321 320 322
327 328 332 330 332 333 331 327 327 327 328 331 329 336 334 334 337 338 339 339 338 337 336 336 337 335 330 327 324 324 323 327 326 329 328 328 330 329 327 324 324 324 323 322 320 317 315 317 319
322 325 330 329 332 334 330 327 326 328 330 326 330 336 337 334 338 338 338 339 338 336 336 335 335 334 332 329 326 324 323 323 326 329 328 326 327 329 328 327 326 324 325 324 322 321 319 317 313
321 327 330 329 329 329 327 327 326 326 329 331 330 331 331 336 337 337 338 339 338 337 336 335 335 335 334 332 330 327 324 324 325 326 328 327 325 327 328 328 327 325 324 324 323 322 322 322 321
320 325 330 324 324 327 325 326 327 328 329 332 334 334 335 336 336 336 336 337 338 337 337 336 335 335 334 333 333 332 331 326 324 324 324 325 325 325 328 328 327 326 325 324 324 323 322 322 323
322 324 325 323 323 323 325 324 323 325 328 330 333 334 334 335 336 335 336 337 338 337 337 336 335 335 334 334 334 333 332 332 331 326 324 323 323 324 325 328 329 328 327 325 324 323 322 321 321
325 322 323 323 322 323 324 323 323 323 323 322 327 331 333 333 333 335 335 336 336 336 336 333 333 334 334 334 334 334 333 332 331 330 328 325 324 325 326 324 327 328 327 326 325 324 323 322 322
324 324 323 322 322 322 323 323 323 323 320 325 326 329 331 332 334 336 336 335 336 336 336 336 335 334 333 333 334 334 333 333 333 332 330 329 328 328 327 326 325 326 326 325 325 324 324 323 323
322 324 324 322 323 324 324 324 324 322 318 320 322 323 323 325 331 333 333 334 333 334 335 335 335 335 335 334 333 333 333 333 333 333 332 331 330 329 329 328 327 326 326 326 325 325 325 324 324
323 325 323 323 322 324 322 325 324 320 320 319 318 316 316 316 319 324 327 327 328 329 330 332 331 333 334 334 334 334 333 333 334 333 333 332 331 331 330 329 329 328 327 326 326 325 325 324 324
324 322 325 322 323 323 322 323 320 319 320 320 318 316 316 317 318 322 324 325 323 324 327 329 330 330 332 334 335 335 335 334 334 334 334 333 332 332 331 331 330 329 328 328 327 326 324 324 323
323 325 324 323 320 323 322 323 320 318 317 317 316 316 315 315 317 320 321 321 321 321 320 320 319 319 320 323 326 328 331 334 335 334 334 334 334 332 332 331 331 330 329 327 327 327 326 325 325
326 326 323 323 320 319 322 322 319 319 317 317 316 314 314 315 315 320 319 319 318 318 317 317 317 317 317 317 317 317 318 320 328 333 334 334 334 332 332 332 332 331 330 329 328 327 327 326 326
322 324 324 320 318 320 319 319 321 320 317 316 315 314 314 315 315 316 316 316 315 315 315 315 315 315 314 315 315 315 316 318 322 328 332 333 333 331 333 331 332 332 331 331 329 328 328 327 327
324 323 323 320 318 320 319 318 318 317 317 316 316 314 314 314 313 312 312 313 313 313 313 313 314 314 315 315 318 319 318 317 323 325 329 331 332 330 332 331 330 330 331 331 331 330 328 328 328
324 325 322 322 319 317 318 318 318 317 316 316 315 315 315 314 315 309 309 310 310 311 311 312 312 312 314 315 317 321 320 319 324 330 331 331 332 331 331 330 329 329 329 330 330 330 330 328 328
325 319 321 321 321 322 316 318 315 314 313 314 315 315 315 314 312 309 307 307 308 309 309 309 309 311 313 315 319 322 322 324 324 328 328 329 328 328 329 329 328 328 328 329 328 327 328 328 326
319 316 317 318 319 319 319 320 315 313 314 312 312 311 312 312 310 308 306 306 306 306 307 306 307 310 311 313 316 320 321 322 319 320 321 322 322 323 321 324 324 324 324 322 324 325 326 325 324
317 320 320 320 321 325 320 319 316 315 315 313 310 309 310 309 306 305 305 304 304 304 303 303 304 306 307 309 311 314 315 315 316 315 315 314 314 313 315 316 316 317 316 317 318 318 318 317 316
319 321 320 325 322 320 314 320 318 314 312 311 311 309 308 306 304 303 301 301 301 301 301 301 301 303 303 305 305 307 309 309 309 308 306 305 303 304 304 306 306 306 306 308 310 311 309 309 309
321 320 319 320 320 315 312 318 314 311 311 311 310 309 307 305 303 302 300 300 300 300 300 299 299 300 300 300 300 301 303 304 304 303 303 302 301 299 298 299 299 299 300 300 301 301 300 299 298
317 321 315 316 304 312 313 311 309 309 310 310 308 309 308 306 304 301 300 300 299 299 298 298 298 297 296 297 297 297 298 299 298 297 296 296 294 294 294 294 295 295 296 295 295 294 292 292 292
315 315 321 316 318 310 311 311 312 312 312 311 311 309 308 305 303 300 298 298 298 298 297 297 296 296 295 293 293 294 294 294 293 292 292 291 292 292 292 292 291 291 291 291 291 291 291 291 291
318 317 317 317 314 314 312 310 305 309 308 310 309 309 308 306 303 299 297 298 297 296 296 295 294 294 293 292 291 291 290 290 290 290 289 289 290 290 290 290 289 289 289 289 290 290 290 289 288
315 317 317 318 310 312 315 314 308 307 309 308 309 308 306 305 302 299 297 296 295 294 294 294 293 292 292 290 289 289 288 288 288 288 288 287 288 288 288 288 288 288 288 288 288 288 287 287 286
Wind_Speed
26 19 2 3 4 5 2 3 2 1 3 3 3 10 8 4 2 2 5 18 18 20 19 15 13 10 5 9 9 10 11 13 12 11 10 10 10 10 9 8 8 10 11 10 9 7 5 8 9
28 8 3 3 5 4 2 2 6 2 5 9 8 5 6 3 2 7 10 18 16 19 19 15 12 9 4 7 9 10 11 11 9 8 8 9 9 9 9 10 10 12 10 8 8 7 9 8 8
14 5 3 4 4 4 4 3 6 3 5 5 4 5 3 2 2 12 12 19 16 17 16 15 13 8 4 6 10 10 11 9 7 8 8 8 9 9 9 9 10 10 8 6 5 6 10 6 7
6 6 4 5 4 1 7 6 4 4 4 6 5 6 3 3 8 9 23 20 17 17 14 14 13 10 6 7 10 11 10 7 7 8 6 7 8 6 7 7 8 6 6 5 3 5 8 5 3
4 3 4 4 3 3 2 5 7 4 3 5 1 3 3 4 12 20 25 20 16 17 14 13 13 9 8 9 10 13 12 10 8 10 7 7 8 6 6 5 6 6 6 4 3 5 6 6 6
4 3 4 3 3 3 4 5 5 5 4 4 6 5 1 13 14 18 24 19 15 17 16 14 13 9 9 9 10 12 14 13 11 12 9 9 9 7 7 7 6 5 6 7 5 4 6 6 7
4 3 3 6 5 3 4 4 3 5 4 2 8 4 2 8 14 16 18 17 16 15 16 14 14 11 11 11 11 12 13 16 15 15 13 12 11 10 8 8 8 7 6 6 6 5 5 7 7
4 3 3 2 5 4 3 3 6 5 2 2 5 6 4 7 17 15 17 18 17 16 14 13 12 11 12 13 12 13 13 15 17 16 15 13 13 13 12 11 12 10 9 8 8 7 6 6 8
2 4 1 1 5 5 4 5 1 3 6 3 4 4 5 23 19 16 19 18 17 17 15 14 15 13 13 11 12 12 13 13 17 17 17 16 15 15 16 16 14 13 12 11 11 10 10 10 9
4 3 0 2 2 3 4 5 6 5 4 4 4 6 17 20 19 18 18 19 18 18 19 18 17 16 14 13 12 13 13 14 15 17 17 18 18 17 16 17 16 15 14 14 14 14 13 14 14
1 3 1 3 3 2 2 3 4 8 2 6 9 9 10 12 17 18 20 22 23 21 19 21 20 18 19 19 17 17 17 15 16 18 18 18 17 18 19 17 17 16 16 16 16 17 17 17 17
2 1 2 2 2 2 2 1 4 3 6 7 11 12 12 10 15 20 22 24 23 21 19 17 21 21 21 20 20 20 20 20 18 16 18 20 21 20 20 21 20 20 20 19 18 18 18 19 19
3 2 2 2 2 2 2 3 1 3 4 6 11 11 11 11 19 25 25 23 24 24 23 19 17 19 20 22 22 23 23 23 21 19 18 19 21 22 21 21 22 22 21 20 20 19 17 18 19
0 2 1 2 3 1 2 0 3 5 5 5 8 11 10 10 22 22 22 23 22 24 23 20 20 20 21 22 22 24 24 25 25 25 23 21 21 22 23 23 24 23 22 22 21 21 20 19 19
2 1 4 0 3 3 4 3 8 8 3 8 9 9 9 12 17 22 24 22 19 19 19 21 24 25 26 26 25 25 25 27 26 28 27 26 26 24 23 26 26 26 24 23 22 21 22 23 22
4 5 2 4 6 4 7 7 11 7 5 10 9 9 9 10 17 23 21 21 18 18 20 19 19 20 25 29 29 29 29 28 29 29 27 29 30 29 26 27 27 24 24 24 23 23 23 23 22
5 3 4 6 7 4 7 6 9 8 8 10 9 9 9 9 8 17 21 16 13 11 12 12 12 11 10 13 17 22 26 30 33 31 29 29 26 28 29 29 28 24 23 24 24 24 24 24 23
5 5 4 6 3 5 7 8 8 6 8 9 7 8 9 9 11 13 13 12 12 11 11 9 8 9 11 13 15 17 20 24 28 30 31 27 27 26 25 27 30 27 26 25 25 26 26 25 24
6 4 7 3 3 2 7 11 14 12 5 9 9 8 8 9 10 10 11 14 13 10 7 5 7 9 12 14 14 16 18 17 21 25 26 24 24 23 26 25 27 24 25 29 28 27 26 27 26
5 5 4 5 6 5 7 8 9 8 7 8 9 9 11 7 5 11 14 13 12 8 4 4 6 8 9 11 12 14 15 14 15 17 22 19 19 22 23 23 24 24 22 25 29 29 24 25 24
5 11 4 5 4 4 4 11 7 7 7 11 10 13 13 15 15 8 12 10 8 6 4 3 4 6 7 9 11 12 13 13 13 11 11 13 15 16 16 14 14 18 21 20 25 27 28 18 18
11 6 5 4 0 5 2 12 8 5 8 6 10 13 16 17 8 8 10 10 9 7 4 2 2 4 5 6 7 7 9 7 4 9 9 8 6 7 9 11 12 14 13 14 15 13 16 16 13
4 7 7 5 4 4 3 5 5 4 6 9 16 12 10 10 8 11 12 15 10 8 5 3 1 2 4 5 4 1 4 10 11 10 11 9 8 8 7 7 8 8 6 3 3 5 6 5 3
6 4 3 2 3 8 10 8 6 9 14 13 7 9 9 6 8 8 15 14 11 9 7 5 2 3 2 2 3 3 8 11 14 13 11 11 10 8 7 6 5 4 4 5 5 6 8 9 12
7 10 1 5 4 7 3 10 17 3 7 8 9 11 7 8 10 10 9 13 13 11 9 6 4 3 2 1 3 5 6 8 10 10 9 8 7 6 5 4 4 5 4 5 6 7 8 8 10
14 9 5 7 5 4 4 9 6 9 10 8 12 5 6 6 6 8 10 15 15 13 11 8 6 5 4 4 4 5 6 7 7 8 8 7 7 6 6 7 8 8 9 9 10 11 11 11 13
5 12 6 3 3 2 5 7 8 9 10 6 6 6 10 10 9 8 10 16 16 14 13 11 10 8 7 6 6 5 6 7 8 8 9 10 10 10 10 10 11 11 11 12 13 14 16 15 16
8 7 5 3 3 4 6 6 9 3 8 5 5 9 8 5 7 7 8 13 15 15 14 13 12 11 10 9 8 8 9 10 11 12 12 12 12 11 11 11 11 11 12 12 13 16 16 18 18
5 5 5 3 6 5 2 6 7 13 9 7 8 7 6 8 8 7 9 18 18 17 17 17 16 15 13 11 10 10 11 11 12 12 12 12 12 12 11 11 12 12 13 14 15 16 17 19 20
15 14 16 6 6 5 8 16 3 5 6 6 7 8 8 8 7 8 12 18 21 22 21 21 18 17 15 14 13 12 12 12 12 12 12 12 12 12 12 12 13 13 14 15 16 18 17 19 18
Wind_Direction
342 342 49 82 61 69 37 353 143 158 62 12 47 89 111 79 67 169 137 181 155 153 158 162 142 123 127 144 140 137 134 140 136 133 134 132 129 126 125 128 134 118 111 100 89 93 111 99 95
341 349 76 83 87 76 297 290 103 105 119 116 94 93 54 71 85 122 118 149 153 156 159 157 146 135 139 150 155 145 151 148 141 139 137 135 126 123 123 117 117 130 116 106 90 86 151 120 97
348 12 78 89 106 141 160 227 147 155 147 157 100 65 99 70 79 151 163 152 146 155 158 157 151 163 167 158 162 153 157 151 152 149 141 142 144 141 135 141 127 135 132 120 113 100 142 127 97
349 13 30 78 98 36 150 200 147 120 40 60 121 66 52 334 170 157 155 150 143 148 155 167 168 174 180 166 167 167 171 178 176 174 167 155 159 154 149 146 158 151 148 138 129 150 135 167 170
33 55 59 66 69 96 92 178 148 109 88 35 55 103 90 48 130 145 157 156 151 155 168 182 183 186 179 173 173 179 182 186 180 186 186 177 176 176 174 172 164 179 188 168 201 208 187 177 191
39 80 76 123 167 140 87 160 135 98 86 158 72 95 97 149 148 151 163 163 172 167 181 197 194 196 189 182 178 180 190 191 190 188 197 193 194 194 190 200 196 208 203 211 227 219 215 221 221
91 67 157 141 148 53 119 110 87 107 128 39 142 88 153 175 158 163 170 173 172 176 182 200 202 205 201 196 191 189 189 194 195 198 199 199 204 212 215 214 220 215 217 230 234 240 238 242 245
95 83 51 77 173 179 164 86 121 98 89 113 138 159 187 199 166 170 175 173 174 176 189 200 206 214 212 210 206 201 197 198 200 204 206 206 208 211 220 228 225 228 235 239 242 246 254 261 261
60 65 50 15 167 174 177 120 132 87 92 48 5 133 178 157 165 163 166 173 180 189 196 207 214 217 218 215 218 220 215 211 213 216 219 219 218 216 218 225 231 233 234 245 248 251 258 262 267
69 88 123 296 143 170 132 128 141 107 102 38 51 53 135 155 165 167 170 179 191 200 208 215 218 223 225 227 227 227 227 227 226 227 232 233 232 226 226 232 233 238 240 244 248 251 256 258 264
64 149 238 337 53 69 100 104 139 123 185 191 180 169 161 165 177 182 191 198 207 217 225 225 224 225 226 229 231 234 234 235 240 237 238 238 236 236 236 235 232 236 237 241 245 250 253 254 262
75 143 346 195 30 76 81 308 86 142 208 181 175 163 167 175 190 199 206 213 222 226 231 229 230 231 232 234 236 239 239 239 242 244 239 237 238 238 239 241 240 243 245 249 253 257 259 259 262
183 237 44 55 103 86 45 46 107 163 219 155 151 167 181 190 201 207 212 219 225 233 234 232 231 232 237 236 238 242 244 246 250 251 246 240 238 240 241 244 246 249 248 252 257 255 262 260 263
60 219 116 198 219 124 154 76 11 240 170 176 166 190 194 194 208 215 222 230 229 233 234 235 236 239 239 237 241 244 248 249 249 251 252 249 248 248 246 247 249 249 250 260 261 260 261 266 268
188 215 348 114 197 215 125 300 233 229 179 206 218 221 218 216 205 208 209 213 221 226 231 232 237 238 239 242 246 247 251 251 250 251 251 250 251 252 252 249 251 254 258 261 261 260 259 261 264
154 73 133 282 167 238 129 257 249 247 220 250 246 244 227 232 219 214 215 216 234 232 234 241 244 251 252 250 251 250 250 252 254 254 254 249 248 251 253 251 253 257 258 260 261 262 262 263 264
358 176 179 290 211 194 189 239 257 229 195 241 244 247 248 256 243 232 221 228 234 226 217 208 197 199 210 230 244 254 259 256 252 251 255 256 252 254 255 251 256 257 258 259 260 262 262 268 269
198 215 216 203 253 193 234 247 267 266 203 234 256 256 250 238 243 214 214 209 197 187 194 200 211 233 245 250 254 257 258 257 258 256 251 253 254 258 254 255 256 259 253 255 255 256 260 263 266
181 194 215 223 247 223 239 246 250 245 246 251 248 257 259 242 252 223 188 182 178 182 196 223 252 266 278 283 280 270 267 270 262 255 254 255 255 259 251 258 258 259 258 255 256 255 257 260 262
190 193 233 279 264 199 275 260 246 251 234 230 240 249 244 251 203 179 175 178 180 179 183 246 275 289 296 296 292 288 275 269 277 269 255 255 256 260 250 251 261 265 260 261 258 253 249 253 256
218 224 188 232 325 264 309 278 244 242 226 230 233 239 243 231 235 180 181 173 163 153 165 243 297 317 317 310 297 286 273 256 252 249 225 236 242 243 242 245 262 269 271 268 265 258 249 238 251
224 189 183 211 0 251 100 280 251 251 256 235 249 245 244 243 222 175 163 169 168 157 166 208 304 330 335 328 317 292 260 214 181 187 182 197 191 207 225 237 246 254 258 251 261 269 259 258 245
203 162 186 202 227 282 219 284 277 233 270 254 251 261 240 230 181 161 167 175 164 158 165 174 166 7 2 0 355 302 151 157 158 156 154 150 155 163 156 168 197 206 205 157 209 248 229 223 202
166 116 115 71 186 248 224 208 205 223 233 252 250 259 251 179 143 138 162 160 158 155 164 173 143 74 43 48 77 108 130 137 141 142 142 137 138 133 140 139 153 158 149 155 147 138 130 126 124
175 153 163 199 216 241 263 202 250 274 274 236 253 258 236 163 153 151 156 164 166 167 172 167 152 124 132 146 147 138 141 149 145 147 144 139 131 124 125 135 145 145 143 144 148 137 126 117 113
198 175 162 196 207 247 196 227 257 230 250 248 238 250 144 175 165 170 170 175 173 174 176 174 171 171 181 177 162 167 168 166 159 160 162 156 149 139 135 137 135 134 133 130 130 125 116 119 114
190 210 175 92 23 35 234 289 290 248 263 259 256 172 192 193 191 183 175 184 181 181 183 186 188 187 184 181 168 164 156 158 153 156 157 153 144 140 145 139 136 132 132 130 129 121 113 110 110
179 159 185 169 227 258 255 264 238 317 241 252 218 219 209 189 183 187 190 188 191 192 191 191 197 197 192 185 175 167 162 160 157 155 151 151 147 148 148 140 134 131 129 127 129 122 121 118 107
163 185 206 169 191 201 267 256 225 232 229 243 245 242 225 213 203 188 192 202 201 199 197 198 199 199 194 191 185 176 167 164 163 163 157 156 152 154 150 142 136 132 129 124 125 123 123 118 112
222 212 196 197 246 244 252 261 318 193 130 157 229 238 225 218 186 188 200 201 203 205 202 204 202 202 201 195 189 186 181 176 173 167 162 159 155 153 149 144 139 134 134 136 129 123 119 118 114